Time,TemperatureF,DewpointF,PressureIn,WindDirection,WindDirectionDegrees,WindSpeedMPH,WindSpeedGustMPH,Humidity,HourlyPrecipIn,Conditions,Clouds,dailyrainin,SoftwareType,DateUTC
2013-04-30 00:00:00,60.1,33.7,29.87,SSE,165,0.0,0.0,37,0.00,,,-99.99,Weather View 32 v60,2013-04-30 04:00:00,
2013-04-30 00:05:00,60.4,34.0,29.84,SSE,157,0.0,0.0,37,0.00,,,-99.99,Weather View 32 v60,2013-04-30 04:05:00,
2013-04-30 00:10:00,60.8,33.6,29.84,SSE,159,0.0,0.0,36,0.00,,,-99.99,Weather View 32 v60,2013-04-30 04:10:00,
2013-04-30 00:15:00,61.0,33.8,29.84,SSE,163,0.0,0.0,36,0.00,,,-99.99,Weather View 32 v60,2013-04-30 04:15:00,
2013-04-30 00:20:00,61.3,34.1,29.84,SSE,160,0.0,0.0,36,0.00,,,-99.99,Weather View 32 v60,2013-04-30 04:20:00,
2013-04-30 00:25:00,61.3,34.1,29.84,SSE,167,0.0,3.0,36,0.00,,,-99.99,Weather View 32 v60,2013-04-30 04:25:00,
2013-04-30 00:30:00,61.7,34.4,29.84,SSE,161,0.0,3.0,36,0.00,,,-99.99,Weather View 32 v60,2013-04-30 04:30:00,
2013-04-30 00:35:00,61.9,34.6,29.84,SSE,154,0.0,3.0,36,0.00,,,-99.99,Weather View 32 v60,2013-04-30 04:35:00,
2013-04-30 00:40:00,61.9,34.6,29.84,SSE,148,3.0,3.0,36,0.00,,,-99.99,Weather View 32 v60,2013-04-30 04:40:00,
2013-04-30 00:45:00,62.1,34.7,29.84,SSE,149,0.0,3.0,36,0.00,,,-99.99,Weather View 32 v60,2013-04-30 04:45:00,
2013-04-30 00:50:00,62.2,34.9,29.84,SSE,159,0.0,4.0,36,0.00,,,-99.99,Weather View 32 v60,2013-04-30 04:50:00,
2013-04-30 00:55:00,62.2,34.2,29.84,South,190,0.0,4.0,35,0.00,,,-99.99,Weather View 32 v60,2013-04-30 04:55:00,
2013-04-30 01:00:00,62.2,34.9,29.84,WSW,245,2.0,4.0,36,0.00,,,-99.99,Weather View 32 v60,2013-04-30 05:00:00,
2013-04-30 01:05:00,62.2,34.9,29.84,SSW,195,0.0,4.0,36,0.00,,,-99.99,Weather View 32 v60,2013-04-30 05:05:00,
2013-04-30 01:10:00,62.2,34.9,29.84,WSW,252,4.0,4.0,36,0.00,,,-99.99,Weather View 32 v60,2013-04-30 05:10:00,
2013-04-30 01:15:00,62.2,34.9,29.84,SW,215,0.0,4.0,36,0.00,,,-99.99,Weather View 32 v60,2013-04-30 05:15:00,
2013-04-30 01:20:00,62.2,34.9,29.87,South,186,0.0,4.0,36,0.00,,,-99.99,Weather View 32 v60,2013-04-30 05:20:00,
2013-04-30 01:25:00,62.2,34.9,29.87,South,183,0.0,4.0,36,0.00,,,-99.99,Weather View 32 v60,2013-04-30 05:25:00,
2013-04-30 01:30:00,62.1,34.7,29.87,South,183,0.0,4.0,36,0.00,,,-99.99,Weather View 32 v60,2013-04-30 05:30:00,
2013-04-30 01:35:00,61.9,34.6,29.87,SSE,168,0.0,4.0,36,0.00,,,-99.99,Weather View 32 v60,2013-04-30 05:35:00,
2013-04-30 01:40:00,61.7,34.4,29.87,SSE,157,0.0,4.0,36,0.00,,,-99.99,Weather View 32 v60,2013-04-30 05:40:00,
2013-04-30 01:45:00,61.7,35.1,29.87,SSE,155,0.0,4.0,37,0.00,,,-99.99,Weather View 32 v60,2013-04-30 05:45:00,
2013-04-30 01:50:00,61.3,34.8,29.87,SSE,155,0.0,4.0,37,0.00,,,-99.99,Weather View 32 v60,2013-04-30 05:50:00,
2013-04-30 01:55:00,61.3,34.8,29.87,SSE,157,0.0,4.0,37,0.00,,,-99.99,Weather View 32 v60,2013-04-30 05:55:00,
2013-04-30 02:00:00,61.3,34.8,29.87,SSE,160,0.0,4.0,37,0.00,,,-99.99,Weather View 32 v60,2013-04-30 06:00:00,
2013-04-30 02:05:00,61.2,34.6,29.87,SSE,164,0.0,4.0,37,0.00,,,-99.99,Weather View 32 v60,2013-04-30 06:05:00,
2013-04-30 02:10:00,61.2,34.6,29.87,SSW,205,0.0,4.0,37,0.00,,,-99.99,Weather View 32 v60,2013-04-30 06:10:00,
2013-04-30 02:15:00,61.2,34.6,29.87,South,187,0.0,3.0,37,0.00,,,-99.99,Weather View 32 v60,2013-04-30 06:15:00,
2013-04-30 02:20:00,61.2,34.6,29.87,SSE,153,0.0,3.0,37,0.00,,,-99.99,Weather View 32 v60,2013-04-30 06:20:00,
2013-04-30 02:25:00,61.2,34.6,29.87,South,184,0.0,3.0,37,0.00,,,-99.99,Weather View 32 v60,2013-04-30 06:25:00,
2013-04-30 02:30:00,61.2,34.6,29.87,SSE,167,0.0,3.0,37,0.00,,,-99.99,Weather View 32 v60,2013-04-30 06:30:00,
2013-04-30 02:35:00,61.0,34.5,29.87,South,187,0.0,3.0,37,0.00,,,-99.99,Weather View 32 v60,2013-04-30 06:35:00,
2013-04-30 02:40:00,61.0,34.5,29.87,South,189,0.0,3.0,37,0.00,,,-99.99,Weather View 32 v60,2013-04-30 06:40:00,
2013-04-30 02:45:00,61.0,34.5,29.87,South,189,0.0,0.0,37,0.00,,,-99.99,Weather View 32 v60,2013-04-30 06:45:00,
2013-04-30 02:50:00,61.0,35.1,29.87,South,186,0.0,0.0,38,0.00,,,-99.99,Weather View 32 v60,2013-04-30 06:50:00,
2013-04-30 02:55:00,61.0,35.1,29.87,South,186,0.0,0.0,38,0.00,,,-99.99,Weather View 32 v60,2013-04-30 06:55:00,
2013-04-30 03:00:00,60.8,35.0,29.87,South,189,0.0,0.0,38,0.00,,,-99.99,Weather View 32 v60,2013-04-30 07:00:00,
2013-04-30 03:05:00,60.8,35.0,29.87,SSE,155,0.0,0.0,38,0.00,,,-99.99,Weather View 32 v60,2013-04-30 07:05:00,
2013-04-30 03:10:00,60.8,35.0,29.87,SSE,158,0.0,0.0,38,0.00,,,-99.99,Weather View 32 v60,2013-04-30 07:10:00,
2013-04-30 03:15:00,60.8,35.0,29.87,SSE,158,0.0,0.0,38,0.00,,,-99.99,Weather View 32 v60,2013-04-30 07:15:00,
2013-04-30 03:20:00,60.6,34.8,29.87,SSE,155,0.0,0.0,38,0.00,,,-99.99,Weather View 32 v60,2013-04-30 07:20:00,
2013-04-30 03:25:00,60.6,35.5,29.87,SSE,153,0.0,0.0,39,0.00,,,-99.99,Weather View 32 v60,2013-04-30 07:25:00,
2013-04-30 03:30:00,60.4,35.3,29.87,SE,131,0.0,0.0,39,0.00,,,-99.99,Weather View 32 v60,2013-04-30 07:30:00,
2013-04-30 03:35:00,60.4,35.3,29.87,SSE,149,0.0,3.0,39,0.00,,,-99.99,Weather View 32 v60,2013-04-30 07:35:00,
2013-04-30 03:40:00,60.4,35.3,29.87,SSE,156,0.0,3.0,39,0.00,,,-99.99,Weather View 32 v60,2013-04-30 07:40:00,
2013-04-30 03:45:00,60.3,35.1,29.87,SSE,158,0.0,3.0,39,0.00,,,-99.99,Weather View 32 v60,2013-04-30 07:45:00,
2013-04-30 03:50:00,60.3,35.1,29.87,SSE,154,0.0,3.0,39,0.00,,,-99.99,Weather View 32 v60,2013-04-30 07:50:00,
2013-04-30 03:55:00,60.1,35.0,29.87,SSE,147,0.0,3.0,39,0.00,,,-99.99,Weather View 32 v60,2013-04-30 07:55:00,
2013-04-30 04:00:00,60.1,35.0,29.87,SE,139,0.0,3.0,39,0.00,,,-99.99,Weather View 32 v60,2013-04-30 08:00:00,
2013-04-30 04:10:00,59.7,35.3,29.87,SSE,149,0.0,3.0,40,0.00,,,-99.99,Weather View 32 v60,2013-04-30 08:10:00,
2013-04-30 04:15:00,59.7,35.3,29.87,SSE,149,0.0,3.0,40,0.00,,,-99.99,Weather View 32 v60,2013-04-30 08:15:00,
2013-04-30 04:20:00,59.5,35.1,29.87,SSE,149,0.0,3.0,40,0.00,,,-99.99,Weather View 32 v60,2013-04-30 08:20:00,
2013-04-30 04:25:00,59.4,35.0,29.87,SSE,149,0.0,3.0,40,0.00,,,-99.99,Weather View 32 v60,2013-04-30 08:25:00,
2013-04-30 04:30:00,59.2,35.4,29.87,SSE,150,0.0,3.0,41,0.00,,,-99.99,Weather View 32 v60,2013-04-30 08:30:00,
2013-04-30 04:35:00,58.8,35.7,29.87,SSE,150,0.0,3.0,42,0.00,,,-99.99,Weather View 32 v60,2013-04-30 08:35:00,
2013-04-30 04:40:00,58.8,35.7,29.87,SE,146,0.0,3.0,42,0.00,,,-99.99,Weather View 32 v60,2013-04-30 08:40:00,
2013-04-30 04:45:00,58.6,36.2,29.87,SE,146,0.0,2.0,43,0.00,,,-99.99,Weather View 32 v60,2013-04-30 08:45:00,
2013-04-30 04:50:00,58.6,36.2,29.87,SSE,159,2.0,3.0,43,0.00,,,-99.99,Weather View 32 v60,2013-04-30 08:50:00,
2013-04-30 04:55:00,58.5,36.0,29.87,SE,146,3.0,4.0,43,0.00,,,-99.99,Weather View 32 v60,2013-04-30 08:55:00,
2013-04-30 05:01:00,58.5,36.6,29.87,SSE,157,3.0,4.0,44,0.00,,,-99.99,Weather View 32 v60,2013-04-30 09:01:00,
2013-04-30 05:10:00,58.3,36.4,29.87,SSE,156,3.0,4.0,44,0.00,,,-99.99,Weather View 32 v60,2013-04-30 09:10:00,
2013-04-30 05:15:00,58.3,36.4,29.87,SE,146,0.0,4.0,44,0.00,,,-99.99,Weather View 32 v60,2013-04-30 09:15:00,
2013-04-30 05:20:00,58.1,36.8,29.87,SSE,151,0.0,4.0,45,0.00,,,-99.99,Weather View 32 v60,2013-04-30 09:20:00,
2013-04-30 05:30:00,58.1,36.8,29.87,SSE,154,0.0,4.0,45,0.00,,,-99.99,Weather View 32 v60,2013-04-30 09:30:00,
2013-04-30 05:35:00,57.9,36.7,29.87,SSE,149,3.0,4.0,45,0.00,,,-99.99,Weather View 32 v60,2013-04-30 09:35:00,
2013-04-30 05:45:00,57.7,36.5,29.87,SE,137,2.0,4.0,45,0.00,,,-99.99,Weather View 32 v60,2013-04-30 09:45:00,
2013-04-30 05:50:00,57.6,36.9,29.87,SSE,158,4.0,4.0,46,0.00,,,-99.99,Weather View 32 v60,2013-04-30 09:50:00,
2013-04-30 05:55:00,57.6,36.9,29.87,SSE,159,0.0,4.0,46,0.00,,,-99.99,Weather View 32 v60,2013-04-30 09:55:00,
2013-04-30 06:00:00,57.6,36.9,29.87,SSE,149,0.0,4.0,46,0.00,,,-99.99,Weather View 32 v60,2013-04-30 10:00:00,
2013-04-30 06:05:00,57.6,36.9,29.87,SSE,153,3.0,4.0,46,0.00,,,-99.99,Weather View 32 v60,2013-04-30 10:05:00,
2013-04-30 06:10:00,57.4,36.7,29.87,SE,145,2.0,4.0,46,0.00,,,-99.99,Weather View 32 v60,2013-04-30 10:10:00,
2013-04-30 06:15:00,57.6,37.4,29.87,SSE,152,0.0,4.0,47,0.00,,,-99.99,Weather View 32 v60,2013-04-30 10:15:00,
2013-04-30 06:20:00,57.6,37.4,29.87,SSE,150,3.0,4.0,47,0.00,,,-99.99,Weather View 32 v60,2013-04-30 10:20:00,
2013-04-30 06:25:00,57.6,37.4,29.87,SSE,149,0.0,4.0,47,0.00,,,-99.99,Weather View 32 v60,2013-04-30 10:25:00,
2013-04-30 06:30:00,57.6,37.4,29.87,SSE,156,0.0,4.0,47,0.00,,,-99.99,Weather View 32 v60,2013-04-30 10:30:00,
2013-04-30 06:35:00,57.6,37.4,29.87,SSE,156,2.0,4.0,47,0.00,,,-99.99,Weather View 32 v60,2013-04-30 10:35:00,
2013-04-30 06:40:00,57.6,37.4,29.87,SSE,157,4.0,4.0,47,0.00,,,-99.99,Weather View 32 v60,2013-04-30 10:40:00,
2013-04-30 06:45:00,57.6,37.4,29.87,South,174,3.0,4.0,47,0.00,,,-99.99,Weather View 32 v60,2013-04-30 10:45:00,
2013-04-30 06:55:00,57.6,37.4,29.90,SSE,156,0.0,4.0,47,0.00,,,-99.99,Weather View 32 v60,2013-04-30 10:55:00,
2013-04-30 07:00:00,57.6,37.4,29.90,SSE,163,0.0,4.0,47,0.00,,,-99.99,Weather View 32 v60,2013-04-30 11:00:00,
2013-04-30 07:05:00,57.6,37.4,29.90,SSE,151,3.0,4.0,47,0.00,,,-99.99,Weather View 32 v60,2013-04-30 11:05:00,
2013-04-30 07:10:00,57.6,37.4,29.90,SSE,152,3.0,4.0,47,0.00,,,-99.99,Weather View 32 v60,2013-04-30 11:10:00,
2013-04-30 07:15:00,57.7,37.6,29.90,SSE,150,3.0,4.0,47,0.00,,,-99.99,Weather View 32 v60,2013-04-30 11:15:00,
2013-04-30 07:20:00,57.9,37.8,29.90,SSE,151,3.0,5.0,47,0.00,,,-99.99,Weather View 32 v60,2013-04-30 11:20:00,
2013-04-30 07:25:00,57.9,37.8,29.90,SE,134,4.0,5.0,47,0.00,,,-99.99,Weather View 32 v60,2013-04-30 11:25:00,
2013-04-30 07:30:00,57.9,37.8,29.90,SE,146,4.0,5.0,47,0.00,,,-99.99,Weather View 32 v60,2013-04-30 11:30:00,
2013-04-30 07:40:00,58.1,37.4,29.90,SSE,162,0.0,6.0,46,0.00,,,-99.99,Weather View 32 v60,2013-04-30 11:40:00,
2013-04-30 07:45:00,58.1,37.4,29.90,SSW,203,0.0,6.0,46,0.00,,,-99.99,Weather View 32 v60,2013-04-30 11:45:00,
2013-04-30 07:50:00,58.1,37.9,29.93,ESE,113,0.0,6.0,47,0.00,,,-99.99,Weather View 32 v60,2013-04-30 11:50:00,
2013-04-30 07:55:00,58.1,37.9,29.93,South,185,0.0,6.0,47,0.00,,,-99.99,Weather View 32 v60,2013-04-30 11:55:00,
2013-04-30 08:00:00,57.9,38.3,29.93,SSE,156,2.0,6.0,48,0.00,,,-99.99,Weather View 32 v60,2013-04-30 12:00:00,
2013-04-30 08:05:00,57.6,38.5,29.93,SE,145,3.0,6.0,49,0.00,,,-99.99,Weather View 32 v60,2013-04-30 12:05:00,
2013-04-30 08:10:00,57.4,38.9,29.93,SE,125,3.0,6.0,50,0.00,,,-99.99,Weather View 32 v60,2013-04-30 12:10:00,
2013-04-30 08:15:00,57.2,40.2,29.93,SE,133,4.0,6.0,53,0.00,,,-99.99,Weather View 32 v60,2013-04-30 12:15:00,
2013-04-30 08:20:00,56.8,42.2,29.90,East,98,6.0,7.0,58,0.00,,,-99.99,Weather View 32 v60,2013-04-30 12:20:00,
2013-04-30 08:30:00,56.3,45.1,29.90,ESE,118,8.0,11.0,66,0.00,,,-99.99,Weather View 32 v60,2013-04-30 12:30:00,
2013-04-30 08:35:00,56.1,46.1,29.84,SE,126,7.0,11.0,69,0.00,,,-99.99,Weather View 32 v60,2013-04-30 12:35:00,
2013-04-30 08:40:00,56.1,47.2,29.84,SE,137,6.0,11.0,72,0.00,,,-99.99,Weather View 32 v60,2013-04-30 12:40:00,
2013-04-30 08:50:00,55.9,47.8,29.87,West,274,11.0,13.0,74,0.00,,,-99.99,Weather View 32 v60,2013-04-30 12:50:00,
2013-04-30 08:55:00,56.1,47.9,29.87,West,274,8.0,13.0,74,0.00,,,-99.99,Weather View 32 v60,2013-04-30 12:55:00,
2013-04-30 09:00:00,56.1,47.6,29.87,SSW,212,11.0,13.0,73,0.00,,,-99.99,Weather View 32 v60,2013-04-30 13:00:00,
2013-04-30 09:05:00,56.1,47.6,29.96,SW,231,6.0,13.0,73,0.00,,,-99.99,Weather View 32 v60,2013-04-30 13:05:00,
2013-04-30 09:10:00,56.1,47.2,29.96,SE,130,3.0,13.0,72,0.00,,,-99.99,Weather View 32 v60,2013-04-30 13:10:00,
2013-04-30 09:15:00,56.3,47.7,29.96,SE,131,4.0,13.0,73,0.00,,,-99.99,Weather View 32 v60,2013-04-30 13:15:00,
2013-04-30 09:20:00,56.1,47.9,29.87,SE,136,6.0,13.0,74,0.00,,,-99.99,Weather View 32 v60,2013-04-30 13:20:00,
2013-04-30 09:30:00,55.9,48.8,29.87,South,179,4.0,13.0,77,0.00,,,-99.99,Weather View 32 v60,2013-04-30 13:30:00,
2013-04-30 09:35:00,55.9,48.8,29.87,West,263,4.0,13.0,77,0.00,,,-99.99,Weather View 32 v60,2013-04-30 13:35:00,
2013-04-30 09:40:00,55.9,48.5,29.87,West,265,11.0,13.0,76,0.00,,,-99.99,Weather View 32 v60,2013-04-30 13:40:00,
2013-04-30 09:45:00,55.9,49.2,29.87,West,267,8.0,13.0,78,0.00,,,-99.99,Weather View 32 v60,2013-04-30 13:45:00,
2013-04-30 09:50:00,56.1,49.3,29.96,WNW,287,11.0,13.0,78,0.00,,,-99.99,Weather View 32 v60,2013-04-30 13:50:00,
2013-04-30 09:55:00,56.1,49.3,29.96,West,262,6.0,13.0,78,0.00,,,-99.99,Weather View 32 v60,2013-04-30 13:55:00,
2013-04-30 10:03:00,56.1,49.3,29.96,SE,134,4.0,13.0,78,0.00,,,-99.99,Weather View 32 v60,2013-04-30 14:03:00,
2013-04-30 10:10:00,55.9,49.2,29.90,WNW,294,3.0,13.0,78,0.00,,,-99.99,Weather View 32 v60,2013-04-30 14:10:00,
2013-04-30 10:15:00,55.9,49.2,29.90,South,172,0.0,13.0,78,0.00,,,-99.99,Weather View 32 v60,2013-04-30 14:15:00,
2013-04-30 10:20:00,55.9,49.2,29.96,WNW,292,5.0,13.0,78,0.00,,,-99.99,Weather View 32 v60,2013-04-30 14:20:00,
2013-04-30 10:25:00,55.9,49.2,29.96,SSW,206,0.0,13.0,78,0.00,,,-99.99,Weather View 32 v60,2013-04-30 14:25:00,
2013-04-30 10:30:00,55.9,49.2,29.96,SE,146,4.0,13.0,78,0.00,,,-99.99,Weather View 32 v60,2013-04-30 14:30:00,
2013-04-30 10:35:00,55.9,49.2,29.93,SSE,157,2.0,13.0,78,0.00,,,-99.99,Weather View 32 v60,2013-04-30 14:35:00,
2013-04-30 10:40:00,55.9,49.5,29.93,SSE,167,0.0,13.0,79,0.00,,,-99.99,Weather View 32 v60,2013-04-30 14:40:00,
2013-04-30 10:45:00,55.9,49.5,29.93,North,357,2.0,13.0,79,0.00,,,-99.99,Weather View 32 v60,2013-04-30 14:45:00,
2013-04-30 10:50:00,55.9,49.5,29.93,North,357,0.0,13.0,79,0.00,,,-99.99,Weather View 32 v60,2013-04-30 14:50:00,
2013-04-30 11:00:00,55.9,49.5,29.93,SE,131,4.0,7.0,79,0.00,,,-99.99,Weather View 32 v60,2013-04-30 15:00:00,
2013-04-30 11:05:00,55.9,49.5,29.96,ESE,111,0.0,7.0,79,0.00,,,-99.99,Weather View 32 v60,2013-04-30 15:05:00,
2013-04-30 11:10:00,56.1,49.7,29.96,ESE,111,0.0,7.0,79,0.00,,,-99.99,Weather View 32 v60,2013-04-30 15:10:00,
2013-04-30 11:15:00,56.1,49.7,29.96,ESE,113,0.0,7.0,79,0.00,,,-99.99,Weather View 32 v60,2013-04-30 15:15:00,
2013-04-30 11:20:00,56.1,49.7,29.96,ENE,78,4.0,7.0,79,0.00,,,-99.99,Weather View 32 v60,2013-04-30 15:20:00,
2013-04-30 11:25:00,56.3,50.2,29.96,East,83,3.0,6.0,80,0.00,,,-99.99,Weather View 32 v60,2013-04-30 15:25:00,
2013-04-30 11:30:00,56.5,50.4,29.96,East,93,2.0,6.0,80,0.00,,,-99.99,Weather View 32 v60,2013-04-30 15:30:00,
2013-04-30 11:35:00,56.5,50.4,29.96,ENE,77,4.0,5.0,80,0.00,,,-99.99,Weather View 32 v60,2013-04-30 15:35:00,
2013-04-30 11:40:00,56.7,50.5,29.96,ESE,111,4.0,5.0,80,0.00,,,-99.99,Weather View 32 v60,2013-04-30 15:40:00,
2013-04-30 11:45:00,56.8,51.1,29.96,ESE,103,2.0,6.0,81,0.00,,,-99.99,Weather View 32 v60,2013-04-30 15:45:00,
2013-04-30 11:55:00,56.8,51.1,29.96,SE,129,5.0,6.0,81,0.00,,,-99.99,Weather View 32 v60,2013-04-30 15:55:00,
2013-04-30 12:00:00,56.8,51.7,29.96,SE,144,5.0,6.0,83,0.00,,,-99.99,Weather View 32 v60,2013-04-30 16:00:00,
2013-04-30 12:05:00,57.0,51.9,29.93,ENE,73,6.0,6.0,83,0.00,,,-99.99,Weather View 32 v60,2013-04-30 16:05:00,
2013-04-30 12:10:00,57.2,52.4,29.93,SE,125,3.0,6.0,84,0.00,,,-99.99,Weather View 32 v60,2013-04-30 16:10:00,
2013-04-30 12:15:00,57.6,53.1,29.93,SSE,153,4.0,6.0,85,0.00,,,-99.99,Weather View 32 v60,2013-04-30 16:15:00,
2013-04-30 12:20:00,57.9,53.7,29.93,SSE,155,5.0,6.0,86,0.00,,,-99.99,Weather View 32 v60,2013-04-30 16:20:00,
2013-04-30 12:25:00,58.1,54.2,29.93,SSE,164,3.0,7.0,87,0.00,,,-99.99,Weather View 32 v60,2013-04-30 16:25:00,
2013-04-30 12:30:00,58.3,54.4,29.93,SE,142,4.0,7.0,87,0.00,,,-99.99,Weather View 32 v60,2013-04-30 16:30:00,
2013-04-30 12:35:00,58.3,54.7,29.93,SSE,155,4.0,7.0,88,0.00,,,-99.99,Weather View 32 v60,2013-04-30 16:35:00,
2013-04-30 12:40:00,58.6,55.1,29.93,SE,137,4.0,8.0,88,0.00,,,-99.99,Weather View 32 v60,2013-04-30 16:40:00,
2013-04-30 12:50:00,59.2,55.6,29.93,SE,142,5.0,8.0,88,0.00,,,-99.99,Weather View 32 v60,2013-04-30 16:50:00,
2013-04-30 12:55:00,59.4,55.2,29.93,SSE,150,4.0,8.0,86,0.00,,,-99.99,Weather View 32 v60,2013-04-30 16:55:00,
2013-04-30 13:00:00,59.7,54.5,29.93,SE,141,5.0,8.0,83,0.00,,,-99.99,Weather View 32 v60,2013-04-30 17:00:00,
2013-04-30 13:05:00,59.9,51.6,29.93,SE,142,5.0,9.0,74,0.00,,,-99.99,Weather View 32 v60,2013-04-30 17:05:00,
2013-04-30 13:15:00,60.4,49.8,29.93,SSE,155,4.0,9.0,68,0.00,,,-99.99,Weather View 32 v60,2013-04-30 17:15:00,
2013-04-30 13:20:00,60.6,48.3,29.93,SSE,156,10.0,10.0,64,0.00,,,-99.99,Weather View 32 v60,2013-04-30 17:20:00,
2013-04-30 13:25:00,60.8,47.2,29.93,SE,134,6.0,10.0,61,0.00,,,-99.99,Weather View 32 v60,2013-04-30 17:25:00,
2013-04-30 13:30:00,61.0,46.5,29.93,SE,132,4.0,10.0,59,0.00,,,-99.99,Weather View 32 v60,2013-04-30 17:30:00,
2013-04-30 13:40:00,61.9,46.0,29.90,WSW,237,6.0,10.0,56,0.00,,,-99.99,Weather View 32 v60,2013-04-30 17:40:00,
2013-04-30 13:45:00,62.2,43.8,29.90,SE,139,7.0,11.0,51,0.00,,,-99.99,Weather View 32 v60,2013-04-30 17:45:00,
2013-04-30 13:50:00,62.4,43.5,29.90,SSE,156,8.0,11.0,50,0.00,,,-99.99,Weather View 32 v60,2013-04-30 17:50:00,
2013-04-30 13:55:00,62.4,42.4,29.90,SSE,148,6.0,11.0,48,0.00,,,-99.99,Weather View 32 v60,2013-04-30 17:55:00,
2013-04-30 14:00:00,62.8,43.3,29.90,SSE,149,7.0,11.0,49,0.00,,,-99.99,Weather View 32 v60,2013-04-30 18:00:00,
2013-04-30 14:05:00,63.1,43.6,29.90,SSE,164,3.0,11.0,49,0.00,,,-99.99,Weather View 32 v60,2013-04-30 18:05:00,
2013-04-30 14:10:00,63.5,43.4,29.90,SE,124,3.0,11.0,48,0.00,,,-99.99,Weather View 32 v60,2013-04-30 18:10:00,
2013-04-30 14:15:00,63.9,43.2,29.90,SSE,166,6.0,11.0,47,0.00,,,-99.99,Weather View 32 v60,2013-04-30 18:15:00,
2013-04-30 14:20:00,64.2,43.0,29.90,ESE,111,4.0,11.0,46,0.00,,,-99.99,Weather View 32 v60,2013-04-30 18:20:00,
2013-04-30 14:30:00,64.4,42.0,29.90,SE,132,4.0,11.0,44,0.00,,,-99.99,Weather View 32 v60,2013-04-30 18:30:00,
2013-04-30 14:35:00,64.8,42.3,29.90,SSE,164,6.0,11.0,44,0.00,,,-99.99,Weather View 32 v60,2013-04-30 18:35:00,
2013-04-30 14:40:00,65.1,42.6,29.90,SSE,150,8.0,11.0,44,0.00,,,-99.99,Weather View 32 v60,2013-04-30 18:40:00,
2013-04-30 14:45:00,65.5,42.3,29.90,SE,143,8.0,9.0,43,0.00,,,-99.99,Weather View 32 v60,2013-04-30 18:45:00,
2013-04-30 14:50:00,65.8,42.7,29.90,SSE,148,6.0,9.0,43,0.00,,,-99.99,Weather View 32 v60,2013-04-30 18:50:00,
2013-04-30 14:55:00,66.0,42.2,29.90,South,183,6.0,9.0,42,0.00,,,-99.99,Weather View 32 v60,2013-04-30 18:55:00,
2013-04-30 15:00:00,66.4,41.9,29.90,SSE,152,6.0,9.0,41,0.00,,,-99.99,Weather View 32 v60,2013-04-30 19:00:00,
2013-04-30 15:05:00,66.6,42.1,29.90,South,184,5.0,10.0,41,0.00,,,-99.99,Weather View 32 v60,2013-04-30 19:05:00,
2013-04-30 15:15:00,67.3,40.1,29.90,SSW,204,5.0,11.0,37,0.00,,,-99.99,Weather View 32 v60,2013-04-30 19:15:00,
2013-04-30 15:20:00,67.6,39.7,29.87,SSE,148,6.0,11.0,36,0.00,,,-99.99,Weather View 32 v60,2013-04-30 19:20:00,
2013-04-30 15:30:00,68.4,39.6,29.87,WSW,245,6.0,12.0,35,0.00,,,-99.99,Weather View 32 v60,2013-04-30 19:30:00,
2013-04-30 15:35:00,68.5,39.0,29.87,SE,135,4.0,12.0,34,0.00,,,-99.99,Weather View 32 v60,2013-04-30 19:35:00,
2013-04-30 15:40:00,68.7,39.1,29.87,SSE,149,9.0,12.0,34,0.00,,,-99.99,Weather View 32 v60,2013-04-30 19:40:00,
2013-04-30 15:45:00,68.9,39.3,29.87,ESE,121,3.0,12.0,34,0.00,,,-99.99,Weather View 32 v60,2013-04-30 19:45:00,
2013-04-30 15:50:00,69.1,39.5,29.87,SE,142,4.0,12.0,34,0.00,,,-99.99,Weather View 32 v60,2013-04-30 19:50:00,
2013-04-30 15:55:00,69.3,39.6,29.87,South,176,6.0,12.0,34,0.00,,,-99.99,Weather View 32 v60,2013-04-30 19:55:00,
2013-04-30 16:00:00,69.4,39.8,29.87,SSE,161,5.0,12.0,34,0.00,,,-99.99,Weather View 32 v60,2013-04-30 20:00:00,
2013-04-30 16:05:00,69.4,39.8,29.87,South,173,5.0,12.0,34,0.00,,,-99.99,Weather View 32 v60,2013-04-30 20:05:00,
2013-04-30 16:10:00,69.4,39.8,29.87,East,98,5.0,12.0,34,0.00,,,-99.99,Weather View 32 v60,2013-04-30 20:10:00,
2013-04-30 16:20:00,69.4,39.8,29.87,SE,135,4.0,12.0,34,0.00,,,-99.99,Weather View 32 v60,2013-04-30 20:20:00,
2013-04-30 16:25:00,69.6,39.9,29.87,SSE,154,8.0,11.0,34,0.00,,,-99.99,Weather View 32 v60,2013-04-30 20:25:00,
2013-04-30 16:30:00,69.6,39.9,29.87,South,180,6.0,11.0,34,0.00,,,-99.99,Weather View 32 v60,2013-04-30 20:30:00,
2013-04-30 16:35:00,69.8,39.3,29.87,South,182,8.0,12.0,33,0.00,,,-99.99,Weather View 32 v60,2013-04-30 20:35:00,
2013-04-30 16:40:00,69.8,39.3,29.87,South,177,6.0,12.0,33,0.00,,,-99.99,Weather View 32 v60,2013-04-30 20:40:00,
2013-04-30 16:45:00,70.0,39.5,29.87,SSE,163,6.0,12.0,33,0.00,,,-99.99,Weather View 32 v60,2013-04-30 20:45:00,
2013-04-30 16:50:00,70.2,39.6,29.87,SSW,203,5.0,12.0,33,0.00,,,-99.99,Weather View 32 v60,2013-04-30 20:50:00,
2013-04-30 16:55:00,70.3,39.8,29.87,SE,141,5.0,12.0,33,0.00,,,-99.99,Weather View 32 v60,2013-04-30 20:55:00,
2013-04-30 17:00:00,70.5,40.0,29.87,South,175,8.0,12.0,33,0.00,,,-99.99,Weather View 32 v60,2013-04-30 21:00:00,
2013-04-30 17:07:00,70.5,40.0,29.87,SE,145,4.0,12.0,33,0.00,,,-99.99,Weather View 32 v60,2013-04-30 21:07:00,
2013-04-30 17:15:00,70.9,40.3,29.87,SE,145,5.0,12.0,33,0.00,,,-99.99,Weather View 32 v60,2013-04-30 21:15:00,
2013-04-30 17:25:00,71.1,40.4,29.87,SE,144,6.0,12.0,33,0.00,,,-99.99,Weather View 32 v60,2013-04-30 21:25:00,
2013-04-30 17:30:00,71.4,40.7,29.87,SE,133,6.0,12.0,33,0.00,,,-99.99,Weather View 32 v60,2013-04-30 21:30:00,
2013-04-30 17:35:00,71.6,40.1,29.87,SSE,166,6.0,11.0,32,0.00,,,-99.99,Weather View 32 v60,2013-04-30 21:35:00,
2013-04-30 17:40:00,71.6,40.1,29.87,ENE,72,4.0,11.0,32,0.00,,,-99.99,Weather View 32 v60,2013-04-30 21:40:00,
2013-04-30 17:45:00,71.8,40.3,29.87,SSE,152,7.0,11.0,32,0.00,,,-99.99,Weather View 32 v60,2013-04-30 21:45:00,
2013-04-30 17:50:00,72.0,40.4,29.87,SSE,154,6.0,11.0,32,0.00,,,-99.99,Weather View 32 v60,2013-04-30 21:50:00,
2013-04-30 18:00:00,72.1,40.6,29.87,SSE,152,6.0,11.0,32,0.00,,,-99.99,Weather View 32 v60,2013-04-30 22:00:00,
2013-04-30 18:05:00,72.1,40.6,29.87,ESE,117,3.0,11.0,32,0.00,,,-99.99,Weather View 32 v60,2013-04-30 22:05:00,
2013-04-30 18:10:00,72.1,40.6,29.87,SE,146,6.0,11.0,32,0.00,,,-99.99,Weather View 32 v60,2013-04-30 22:10:00,
2013-04-30 18:15:00,72.1,40.6,29.87,SSE,162,3.0,11.0,32,0.00,,,-99.99,Weather View 32 v60,2013-04-30 22:15:00,
2013-04-30 18:20:00,72.1,40.6,29.87,SSE,155,4.0,11.0,32,0.00,,,-99.99,Weather View 32 v60,2013-04-30 22:20:00,
2013-04-30 18:25:00,72.3,40.7,29.87,SSE,156,4.0,10.0,32,0.00,,,-99.99,Weather View 32 v60,2013-04-30 22:25:00,
2013-04-30 18:30:00,72.3,40.7,29.87,SE,130,4.0,10.0,32,0.00,,,-99.99,Weather View 32 v60,2013-04-30 22:30:00,
2013-04-30 18:35:00,72.3,40.7,29.87,SE,146,4.0,11.0,32,0.00,,,-99.99,Weather View 32 v60,2013-04-30 22:35:00,
2013-04-30 18:45:00,72.3,40.7,29.87,SE,146,4.0,11.0,32,0.00,,,-99.99,Weather View 32 v60,2013-04-30 22:45:00,
2013-04-30 18:50:00,72.5,40.1,29.90,SSE,167,6.0,11.0,31,0.00,,,-99.99,Weather View 32 v60,2013-04-30 22:50:00,
2013-04-30 18:55:00,72.5,40.1,29.90,SE,136,5.0,11.0,31,0.00,,,-99.99,Weather View 32 v60,2013-04-30 22:55:00,
2013-04-30 19:00:00,72.5,40.1,29.90,SW,234,6.0,11.0,31,0.00,,,-99.99,Weather View 32 v60,2013-04-30 23:00:00,
2013-04-30 19:05:00,72.5,40.1,29.90,SSW,209,3.0,11.0,31,0.00,,,-99.99,Weather View 32 v60,2013-04-30 23:05:00,
2013-04-30 19:10:00,72.3,39.9,29.90,SE,141,5.0,11.0,31,0.00,,,-99.99,Weather View 32 v60,2013-04-30 23:10:00,
2013-04-30 19:15:00,72.3,39.9,29.90,SSE,157,4.0,11.0,31,0.00,,,-99.99,Weather View 32 v60,2013-04-30 23:15:00,
2013-04-30 19:20:00,72.1,39.8,29.90,SE,129,3.0,11.0,31,0.00,,,-99.99,Weather View 32 v60,2013-04-30 23:20:00,
2013-04-30 19:30:00,72.0,39.6,29.90,SSE,158,5.0,11.0,31,0.00,,,-99.99,Weather View 32 v60,2013-04-30 23:30:00,
2013-04-30 19:35:00,71.8,39.4,29.90,SSE,154,4.0,9.0,31,0.00,,,-99.99,Weather View 32 v60,2013-04-30 23:35:00,
2013-04-30 19:40:00,71.6,39.3,29.90,South,172,4.0,8.0,31,0.00,,,-99.99,Weather View 32 v60,2013-04-30 23:40:00,
2013-04-30 19:45:00,71.4,39.9,29.90,SSE,147,5.0,8.0,32,0.00,,,-99.99,Weather View 32 v60,2013-04-30 23:45:00,
2013-04-30 19:50:00,71.2,39.8,29.90,SSE,155,4.0,8.0,32,0.00,,,-99.99,Weather View 32 v60,2013-04-30 23:50:00,
2013-04-30 19:55:00,71.2,39.8,29.90,SSE,159,3.0,8.0,32,0.00,,,-99.99,Weather View 32 v60,2013-04-30 23:55:00,
2013-04-30 20:00:00,71.1,39.6,29.90,SSE,166,0.0,8.0,32,0.00,,,-99.99,Weather View 32 v60,2013-05-01 00:00:00,
2013-04-30 20:05:00,70.9,39.5,29.90,South,171,6.0,8.0,32,0.00,,,-99.99,Weather View 32 v60,2013-05-01 00:05:00,
2013-04-30 20:10:00,70.7,39.3,29.90,SSE,155,5.0,8.0,32,0.00,,,-99.99,Weather View 32 v60,2013-05-01 00:10:00,
2013-04-30 20:15:00,70.5,39.2,29.90,SSE,151,6.0,6.0,32,0.00,,,-99.99,Weather View 32 v60,2013-05-01 00:15:00,
2013-04-30 20:20:00,70.3,39.0,29.90,SSE,151,5.0,6.0,32,0.00,,,-99.99,Weather View 32 v60,2013-05-01 00:20:00,
2013-04-30 20:25:00,70.3,39.0,29.90,SSE,158,6.0,6.0,32,0.00,,,-99.99,Weather View 32 v60,2013-05-01 00:25:00,
2013-04-30 20:30:00,70.2,38.8,29.90,SSE,155,5.0,6.0,32,0.00,,,-99.99,Weather View 32 v60,2013-05-01 00:30:00,
2013-04-30 20:35:00,70.0,38.7,29.90,ESE,103,3.0,6.0,32,0.00,,,-99.99,Weather View 32 v60,2013-05-01 00:35:00,
2013-04-30 20:40:00,69.8,38.5,29.90,SSE,149,6.0,6.0,32,0.00,,,-99.99,Weather View 32 v60,2013-05-01 00:40:00,
2013-04-30 20:45:00,69.8,38.5,29.90,SSE,168,5.0,6.0,32,0.00,,,-99.99,Weather View 32 v60,2013-05-01 00:45:00,
2013-04-30 20:50:00,69.6,39.2,29.90,SSE,160,3.0,6.0,33,0.00,,,-99.99,Weather View 32 v60,2013-05-01 00:50:00,
2013-04-30 20:55:00,69.4,39.0,29.90,SE,133,3.0,6.0,33,0.00,,,-99.99,Weather View 32 v60,2013-05-01 00:55:00,
2013-04-30 21:00:00,69.4,39.0,29.90,SE,146,3.0,6.0,33,0.00,,,-99.99,Weather View 32 v60,2013-05-01 01:00:00,
2013-04-30 21:05:00,69.4,39.0,29.93,SSE,155,3.0,6.0,33,0.00,,,-99.99,Weather View 32 v60,2013-05-01 01:05:00,
2013-04-30 21:10:00,69.3,38.9,29.93,SSE,157,4.0,6.0,33,0.00,,,-99.99,Weather View 32 v60,2013-05-01 01:10:00,
2013-04-30 21:15:00,69.1,38.7,29.93,SSE,153,3.0,6.0,33,0.00,,,-99.99,Weather View 32 v60,2013-05-01 01:15:00,
2013-04-30 21:20:00,69.1,38.7,29.93,SSE,151,3.0,6.0,33,0.00,,,-99.99,Weather View 32 v60,2013-05-01 01:20:00,
2013-04-30 21:25:00,68.9,38.5,29.93,SSE,163,4.0,6.0,33,0.00,,,-99.99,Weather View 32 v60,2013-05-01 01:25:00,
2013-04-30 21:30:00,68.9,38.5,29.93,SE,136,3.0,6.0,33,0.00,,,-99.99,Weather View 32 v60,2013-05-01 01:30:00,
2013-04-30 21:35:00,68.7,38.4,29.93,South,186,3.0,6.0,33,0.00,,,-99.99,Weather View 32 v60,2013-05-01 01:35:00,
2013-04-30 21:40:00,68.7,38.4,29.93,SSE,154,5.0,6.0,33,0.00,,,-99.99,Weather View 32 v60,2013-05-01 01:40:00,
2013-04-30 21:45:00,68.7,38.4,29.93,SSE,168,0.0,6.0,33,0.00,,,-99.99,Weather View 32 v60,2013-05-01 01:45:00,
2013-04-30 21:50:00,68.5,38.2,29.93,SSE,155,4.0,6.0,33,0.00,,,-99.99,Weather View 32 v60,2013-05-01 01:50:00,
2013-04-30 21:55:00,68.4,38.1,29.93,SSE,150,3.0,6.0,33,0.00,,,-99.99,Weather View 32 v60,2013-05-01 01:55:00,
2013-04-30 22:00:00,68.2,37.9,29.93,ESE,106,3.0,6.0,33,0.00,,,-99.99,Weather View 32 v60,2013-05-01 02:00:00,
2013-04-30 22:05:00,68.2,37.9,29.96,South,174,5.0,6.0,33,0.00,,,-99.99,Weather View 32 v60,2013-05-01 02:05:00,
2013-04-30 22:10:00,68.0,37.8,29.96,South,171,4.0,6.0,33,0.00,,,-99.99,Weather View 32 v60,2013-05-01 02:10:00,
2013-04-30 22:20:00,67.8,38.4,29.96,SSE,155,3.0,6.0,34,0.00,,,-99.99,Weather View 32 v60,2013-05-01 02:20:00,
2013-04-30 22:25:00,67.6,38.2,29.96,SSE,155,5.0,6.0,34,0.00,,,-99.99,Weather View 32 v60,2013-05-01 02:25:00,
2013-04-30 22:30:00,67.6,38.2,29.96,SSE,151,3.0,6.0,34,0.00,,,-99.99,Weather View 32 v60,2013-05-01 02:30:00,
2013-04-30 22:35:00,67.5,38.0,29.96,South,178,5.0,6.0,34,0.00,,,-99.99,Weather View 32 v60,2013-05-01 02:35:00,
2013-04-30 22:40:00,67.5,38.0,29.96,SSE,160,4.0,6.0,34,0.00,,,-99.99,Weather View 32 v60,2013-05-01 02:40:00,
2013-04-30 22:45:00,67.5,38.0,29.96,SSE,149,4.0,6.0,34,0.00,,,-99.99,Weather View 32 v60,2013-05-01 02:45:00,
2013-04-30 22:50:00,67.3,37.9,29.96,SSE,154,3.0,6.0,34,0.00,,,-99.99,Weather View 32 v60,2013-05-01 02:50:00,
2013-04-30 22:55:00,67.3,37.9,29.96,SSE,164,4.0,6.0,34,0.00,,,-99.99,Weather View 32 v60,2013-05-01 02:55:00,
2013-04-30 23:00:00,67.1,37.7,29.96,SSE,156,3.0,6.0,34,0.00,,,-99.99,Weather View 32 v60,2013-05-01 03:00:00,
2013-04-30 23:05:00,67.1,37.7,29.96,SSE,150,2.0,6.0,34,0.00,,,-99.99,Weather View 32 v60,2013-05-01 03:05:00,
2013-04-30 23:10:00,66.9,37.6,29.96,SSE,162,4.0,6.0,34,0.00,,,-99.99,Weather View 32 v60,2013-05-01 03:10:00,
2013-04-30 23:20:00,66.9,38.3,29.96,SSE,155,6.0,6.0,35,0.00,,,-99.99,Weather View 32 v60,2013-05-01 03:20:00,
2013-04-30 23:25:00,66.9,38.3,29.96,SSE,153,3.0,6.0,35,0.00,,,-99.99,Weather View 32 v60,2013-05-01 03:25:00,
2013-04-30 23:30:00,66.7,38.1,29.96,South,174,0.0,6.0,35,0.00,,,-99.99,Weather View 32 v60,2013-05-01 03:30:00,
2013-04-30 23:35:00,66.6,38.0,29.96,South,172,4.0,6.0,35,0.00,,,-99.99,Weather View 32 v60,2013-05-01 03:35:00,
2013-04-30 23:40:00,66.6,38.0,29.96,SE,140,4.0,6.0,35,0.00,,,-99.99,Weather View 32 v60,2013-05-01 03:40:00,
2013-04-30 23:45:00,66.4,37.8,29.96,SSE,158,4.0,6.0,35,0.00,,,-99.99,Weather View 32 v60,2013-05-01 03:45:00,
2013-04-30 23:50:00,66.4,37.8,29.96,SSE,162,4.0,6.0,35,0.00,,,-99.99,Weather View 32 v60,2013-05-01 03:50:00,
2013-04-30 23:55:00,66.2,37.7,29.96,SE,142,3.0,6.0,35,0.00,,,-99.99,Weather View 32 v60,2013-05-01 03:55:00,